| time (UTC) | temp F | wind direction | speed knots | gust knots | rain 1hr in | rain 24hr in | rain mn in | humidity % | barometer mb |
| 20260507213949 | 58 | 253 | 1.7 | 4.3 | 0.00 | 0.00 | 0.00 | 36 | 1004.9 |
| 20260507213446 | 58 | 243 | 1.7 | 4.3 | 0.00 | 0.00 | 0.00 | 36 | 1004.8 |
| 20260507212943 | 57 | 274 | 0.9 | 2.6 | 0.00 | 0.00 | 0.00 | 37 | 1004.9 |
| 20260507212438 | 57 | 270 | 0.9 | 4.3 | 0.00 | 0.00 | 0.00 | 40 | 1005.1 |
| 20260507211936 | 57 | 210 | 3.5 | 8.7 | 0.00 | 0.00 | 0.00 | 37 | 1005.0 |
| 20260507211432 | 58 | 190 | 4.3 | 7.8 | 0.00 | 0.00 | 0.00 | 35 | 1004.9 |
| 20260507210929 | 58 | 225 | 4.3 | 8.7 | 0.00 | 0.00 | 0.00 | 36 | 1005.0 |
| 20260507210426 | 58 | 217 | 1.7 | 2.6 | 0.00 | 0.00 | 0.00 | 35 | 1004.8 |
| 20260507205923 | 58 | 238 | 0.9 | 7.8 | 0.00 | 0.00 | 0.00 | 36 | 1004.8 |
| 20260507205420 | 58 | 326 | 3.5 | 5.2 | 0.00 | 0.00 | 0.00 | 37 | 1004.9 |
| 20260507204916 | 58 | 260 | 0.9 | 9.6 | 0.00 | 0.00 | 0.00 | 41 | 1004.8 |
| 20260507204412 | 59 | 291 | 1.7 | 2.6 | 0.00 | 0.00 | 0.00 | 33 | 1004.8 |
| 20260507203910 | 58 | 271 | 1.7 | 4.3 | 0.00 | 0.00 | 0.00 | 32 | 1004.5 |
| 20260507203408 | 58 | 227 | 7.0 | 8.7 | 0.00 | 0.00 | 0.00 | 33 | 1004.6 |
| 20260507202904 | 59 | 303 | 4.3 | 5.2 | 0.00 | 0.00 | 0.00 | 32 | 1004.6 |
| 20260507202401 | 59 | 207 | 2.6 | 5.2 | 0.00 | 0.00 | 0.00 | 33 | 1004.8 |
| 20260507201856 | 60 | 279 | 2.6 | 4.3 | 0.00 | 0.00 | 0.00 | 32 | 1004.5 |
| 20260507201352 | 61 | 7 | 2.6 | 4.3 | 0.00 | 0.00 | 0.00 | 34 | 1004.2 |
| 20260507200848 | 60 | 274 | 0.9 | 2.6 | 0.00 | 0.00 | 0.00 | 33 | 1004.3 |
| 20260507200344 | 61 | 270 | 0.9 | 4.3 | 0.00 | 0.00 | 0.00 | 34 | 1004.5 |
| 20260507195841 | 60 | 294 | 1.7 | 2.6 | 0.00 | 0.00 | 0.00 | 35 | 1004.2 |
| 20260507195338 | 58 | 247 | 4.3 | 7.8 | 0.00 | 0.00 | 0.00 | 34 | 1004.5 |
| 20260507194835 | 58 | 250 | 0.0 | 2.6 | 0.00 | 0.00 | 0.00 | 38 | 1004.3 |
| 20260507194331 | 57 | 245 | 0.9 | 5.2 | 0.00 | 0.00 | 0.00 | 36 | 1004.6 |
| 20260507193828 | 58 | 226 | 3.5 | 6.1 | 0.00 | 0.00 | 0.00 | 37 | 1004.6 |
| 20260507193325 | 57 | 230 | 5.2 | 6.1 | 0.00 | 0.00 | 0.00 | 37 | 1004.6 |
| 20260507192821 | 57 | 232 | 1.7 | 2.6 | 0.00 | 0.00 | 0.00 | 34 | 1004.4 |
| 20260507192318 | 57 | 213 | 3.5 | 7.8 | 0.00 | 0.00 | 0.00 | 37 | 1004.6 |
| 20260507191814 | 57 | 234 | 4.3 | 7.8 | 0.00 | 0.00 | 0.00 | 37 | 1004.9 |
| 20260507191310 | 58 | 250 | 4.3 | 6.1 | 0.00 | 0.00 | 0.00 | 34 | 1004.9 |
| 20260507190808 | 58 | 181 | 4.3 | 13.0 | 0.00 | 0.00 | 0.00 | 39 | 1005.0 |
| 20260507190306 | 59 | 287 | 4.3 | 8.7 | 0.00 | 0.00 | 0.00 | 33 | 1005.2 |
| 20260507185804 | 59 | 262 | 0.9 | 2.6 | 0.00 | 0.00 | 0.00 | 35 | 1004.8 |
| 20260507185300 | 59 | 204 | 2.6 | 5.2 | 0.00 | 0.00 | 0.00 | 37 | 1004.8 |
| 20260507184758 | 59 | 221 | 7.0 | 9.6 | 0.00 | 0.00 | 0.00 | 32 | 1005.0 |
| 20260507184256 | 58 | 341 | 1.7 | 1.7 | 0.00 | 0.00 | 0.00 | 34 | 1004.8 |
| 20260507183753 | 57 | 261 | 0.9 | 0.9 | 0.00 | 0.00 | 0.00 | 41 | 1004.8 |
| 20260507183250 | 58 | 255 | 0.9 | 1.7 | 0.00 | 0.00 | 0.00 | 41 | 1004.9 |
| 20260507182748 | 57 | 292 | 0.0 | 2.6 | 0.00 | 0.00 | 0.00 | 37 | 1004.9 |
| 20260507182247 | 57 | 292 | 3.5 | 7.0 | 0.00 | 0.00 | 0.00 | 37 | 1005.1 |
| 20260507181745 | 57 | 263 | 0.9 | 5.2 | 0.00 | 0.00 | 0.00 | 39 | 1005.1 |
| 20260507181241 | 56 | 235 | 0.0 | 1.7 | 0.00 | 0.00 | 0.00 | 43 | 1005.1 |
| 20260507180738 | 56 | 278 | 0.9 | 1.7 | 0.00 | 0.00 | 0.00 | 45 | 1004.9 |
| 20260507180235 | 57 | 266 | 1.7 | 7.0 | 0.00 | 0.00 | 0.00 | 41 | 1005.2 |
| 20260507175730 | 59 | 279 | 2.6 | 5.2 | 0.00 | 0.00 | 0.00 | 38 | 1005.1 |
| 20260507175227 | 57 | 303 | 0.9 | 1.7 | 0.00 | 0.00 | 0.00 | 44 | 1004.9 |
| 20260507174725 | 57 | 287 | 0.0 | 1.7 | 0.00 | 0.00 | 0.00 | 41 | 1005.0 |
| 20260507174223 | 57 | 247 | 1.7 | 7.8 | 0.00 | 0.00 | 0.00 | 41 | 1005.1 |
| 20260507173720 | 57 | 223 | 1.7 | 2.6 | 0.00 | 0.00 | 0.00 | 43 | 1005.1 |
| 20260507173216 | 57 | 297 | 4.3 | 6.1 | 0.00 | 0.00 | 0.00 | 39 | 1005.1 |
| 20260507172713 | 57 | 261 | 1.7 | 9.6 | 0.00 | 0.00 | 0.00 | 44 | 1005.3 |
| 20260507172210 | 57 | 225 | 7.0 | 7.8 | 0.00 | 0.00 | 0.00 | 45 | 1005.3 |
| 20260507171710 | 56 | 278 | 2.6 | 6.1 | 0.00 | 0.00 | 0.00 | 45 | 1005.2 |
| 20260507171208 | 55 | 229 | 5.2 | 8.7 | 0.00 | 0.00 | 0.00 | 44 | 1005.4 |
| 20260507170704 | 55 | 288 | 1.7 | 4.3 | 0.00 | 0.00 | 0.00 | 45 | 1005.6 |
| 20260507170202 | 54 | 294 | 1.7 | 7.8 | 0.00 | 0.00 | 0.00 | 52 | 1005.6 |
| 20260507165657 | 54 | 238 | 0.9 | 1.7 | 0.00 | 0.00 | 0.00 | 56 | 1005.8 |
| 20260507165154 | 54 | 105 | 2.6 | 2.6 | 0.00 | 0.00 | 0.00 | 57 | 1005.8 |
| 20260507164649 | 55 | 178 | 1.7 | 4.3 | 0.00 | 0.00 | 0.00 | 59 | 1005.8 |
| 20260507164147 | 56 | 247 | 2.6 | 4.3 | 0.00 | 0.00 | 0.00 | 56 | 1005.5 |
| 20260507163644 | 56 | 237 | 2.6 | 4.3 | 0.00 | 0.00 | 0.00 | 53 | 1005.7 |
| 20260507163142 | 55 | 240 | 2.6 | 4.3 | 0.00 | 0.00 | 0.00 | 55 | 1005.9 |
| 20260507162637 | 56 | 221 | 3.5 | 5.2 | 0.00 | 0.00 | 0.00 | 54 | 1005.9 |
| 20260507162134 | 55 | 245 | 1.7 | 6.1 | 0.00 | 0.00 | 0.00 | 56 | 1005.9 |
| 20260507161630 | 55 | 267 | 3.5 | 8.7 | 0.00 | 0.00 | 0.00 | 55 | 1005.8 |
| 20260507161127 | 55 | 268 | 2.6 | 7.8 | 0.00 | 0.00 | 0.00 | 60 | 1006.1 |
| 20260507160623 | 55 | 231 | 5.2 | 6.1 | 0.00 | 0.00 | 0.00 | 56 | 1005.9 |
| 20260507160120 | 54 | 191 | 0.9 | 5.2 | 0.00 | 0.00 | 0.00 | 58 | 1006.1 |
| 20260507155615 | 55 | 217 | 5.2 | 8.7 | 0.00 | 0.00 | 0.00 | 56 | 1006.0 |
| 20260507155112 | 55 | 212 | 4.3 | 6.1 | 0.00 | 0.00 | 0.00 | 58 | 1006.1 |
| 20260507154609 | 55 | 224 | 4.3 | 6.1 | 0.00 | 0.00 | 0.00 | 58 | 1006.0 |
| 20260507154106 | 55 | 32 | 2.6 | 5.2 | 0.00 | 0.00 | 0.00 | 56 | 1006.1 |
| 20260507153603 | 55 | 223 | 8.7 | 11.3 | 0.00 | 0.00 | 0.00 | 58 | 1006.2 |
| 20260507153059 | 55 | 195 | 4.3 | 7.0 | 0.00 | 0.00 | 0.00 | 60 | 1006.0 |
| 20260507152555 | 55 | 282 | 3.5 | 6.1 | 0.00 | 0.00 | 0.00 | 59 | 1006.3 |
| 20260507152052 | 55 | 264 | 1.7 | 4.3 | 0.00 | 0.00 | 0.00 | 56 | 1006.1 |
| 20260507151548 | 55 | 227 | 1.7 | 1.7 | 0.00 | 0.00 | 0.00 | 55 | 1006.1 |
| 20260507151045 | 54 | 273 | 0.9 | 6.1 | 0.00 | 0.00 | 0.00 | 63 | 1006.1 |
| 20260507150542 | 54 | 194 | 5.2 | 6.1 | 0.00 | 0.00 | 0.00 | 61 | 1006.4 |
| 20260507150034 | 54 | 192 | 6.1 | 7.0 | 0.00 | 0.00 | 0.00 | 62 | 1006.2 |
| 20260507145533 | 54 | 211 | 4.3 | 5.2 | 0.00 | 0.00 | 0.00 | 60 | 1006.1 |
| 20260507145032 | 53 | 271 | 0.9 | 0.9 | 0.00 | 0.00 | 0.00 | 63 | 1006.1 |
| 20260507144528 | 53 | 243 | 0.9 | 5.2 | 0.00 | 0.00 | 0.00 | 66 | 1006.2 |
| 20260507144026 | 54 | 293 | 0.9 | 2.6 | 0.00 | 0.00 | 0.00 | 65 | 1006.1 |
| 20260507143523 | 54 | 266 | 0.9 | 4.3 | 0.00 | 0.00 | 0.00 | 64 | 1006.1 |
| 20260507143020 | 54 | 232 | 0.9 | 1.7 | 0.00 | 0.00 | 0.00 | 64 | 1006.2 |
| 20260507142515 | 54 | 215 | 4.3 | 8.7 | 0.00 | 0.00 | 0.00 | 66 | 1006.0 |
| 20260507142013 | 54 | 249 | 0.9 | 1.7 | 0.00 | 0.00 | 0.00 | 64 | 1006.2 |
| 20260507141508 | 54 | 311 | 0.9 | 2.6 | 0.00 | 0.00 | 0.00 | 61 | 1006.1 |
| 20260507141007 | 54 | 266 | 0.0 | 0.9 | 0.00 | 0.00 | 0.00 | 66 | 1006.1 |
| 20260507140502 | 53 | 287 | 0.9 | 1.7 | 0.00 | 0.00 | 0.00 | 63 | 1006.3 |
| 20260507135959 | 53 | 301 | 1.7 | 2.6 | 0.00 | 0.00 | 0.00 | 62 | 1006.4 |
| 20260507135456 | 53 | 289 | 0.0 | 2.6 | 0.00 | 0.00 | 0.00 | 63 | 1006.4 |
| 20260507134953 | 53 | 289 | 0.9 | 1.7 | 0.00 | 0.00 | 0.00 | 67 | 1006.3 |
| 20260507134450 | 52 | 197 | 2.6 | 4.3 | 0.00 | 0.00 | 0.00 | 70 | 1006.4 |
| 20260507133946 | 52 | 254 | 0.9 | 2.6 | 0.00 | 0.00 | 0.00 | 68 | 1006.4 |
| 20260507133442 | 52 | 219 | 5.2 | 6.1 | 0.00 | 0.00 | 0.00 | 67 | 1006.7 |
| 20260507132941 | 51 | 297 | 1.7 | 2.6 | 0.00 | 0.00 | 0.00 | 67 | 1006.7 |
| 20260507132436 | 51 | 273 | 1.7 | 5.2 | 0.00 | 0.00 | 0.00 | 72 | 1006.7 |
| 20260507131933 | 51 | 236 | 1.7 | 4.3 | 0.00 | 0.00 | 0.00 | 72 | 1006.7 |
| 20260507131430 | 51 | 271 | 0.9 | 4.3 | 0.00 | 0.00 | 0.00 | 74 | 1006.5 |
| 20260507130927 | 51 | 261 | 0.9 | 1.7 | 0.00 | 0.00 | 0.00 | 76 | 1006.6 |
| 20260507130424 | 51 | 283 | 1.7 | 2.6 | 0.00 | 0.00 | 0.00 | 72 | 1006.6 |
| 20260507125923 | 51 | 307 | 0.9 | 2.6 | 0.00 | 0.00 | 0.00 | 75 | 1006.6 |
| 20260507125421 | 50 | 276 | 0.9 | 1.7 | 0.00 | 0.00 | 0.00 | 74 | 1006.5 |
| 20260507124918 | 50 | 295 | 1.7 | 1.7 | 0.00 | 0.00 | 0.00 | 74 | 1006.7 |
| 20260507124413 | 50 | 243 | 1.7 | 6.1 | 0.00 | 0.00 | 0.00 | 75 | 1006.7 |
| 20260507123912 | 49 | 271 | 0.9 | 1.7 | 0.00 | 0.00 | 0.00 | 76 | 1006.5 |
| 20260507123409 | 49 | 298 | 0.9 | 2.6 | 0.00 | 0.00 | 0.00 | 78 | 1006.7 |
| 20260507122906 | 49 | 232 | 0.9 | 5.2 | 0.00 | 0.00 | 0.00 | 78 | 1006.7 |
| 20260507122400 | 49 | 191 | 2.6 | 5.2 | 0.00 | 0.00 | 0.00 | 80 | 1006.6 |
| 20260507121857 | 48 | 232 | 5.2 | 6.1 | 0.00 | 0.00 | 0.00 | 81 | 1006.7 |
| 20260507121352 | 48 | 235 | 1.7 | 5.2 | 0.00 | 0.00 | 0.00 | 81 | 1007.0 |
| 20260507120850 | 48 | 320 | 0.9 | 2.6 | 0.00 | 0.00 | 0.00 | 83 | 1006.9 |
| 20260507120346 | 47 | 287 | 1.7 | 4.3 | 0.00 | 0.00 | 0.00 | 83 | 1007.1 |
| 20260507115842 | 46 | 288 | 0.0 | 1.7 | 0.00 | 0.00 | 0.00 | 87 | 1007.1 |
| 20260507115338 | 47 | 257 | 0.0 | 0.9 | 0.00 | 0.00 | 0.00 | 86 | 1007.1 |
| 20260507114834 | 47 | 277 | 0.0 | 1.7 | 0.00 | 0.00 | 0.00 | 89 | 1007.0 |
| 20260507114331 | 46 | 250 | 0.9 | 5.2 | 0.00 | 0.00 | 0.00 | 88 | 1006.8 |
| 20260507113829 | 45 | 253 | 0.0 | 1.7 | 0.00 | 0.00 | 0.00 | 95 | 1006.8 |
| 20260507113325 | 45 | 291 | 0.0 | 0.0 | 0.00 | 0.00 | 0.00 | 96 | 1006.7 |
| 20260507112823 | 44 | 291 | 0.0 | 0.9 | 0.00 | 0.00 | 0.00 | 96 | 1006.7 |
| 20260507112320 | 44 | 250 | 0.0 | 0.9 | 0.00 | 0.00 | 0.00 | 96 | 1006.6 |
| 20260507111818 | 44 | 319 | 0.0 | 0.0 | 0.00 | 0.00 | 0.00 | 96 | 1006.8 |
| 20260507111314 | 44 | 319 | 0.9 | 0.9 | 0.00 | 0.00 | 0.00 | 96 | 1006.7 |
| 20260507110810 | 44 | 318 | 0.9 | 0.9 | 0.00 | 0.00 | 0.00 | 96 | 1006.6 |
| 20260507110307 | 44 | 317 | 0.9 | 0.9 | 0.00 | 0.00 | 0.00 | 96 | 1006.8 |
| 20260507105804 | 44 | 316 | 0.0 | 0.0 | 0.00 | 0.00 | 0.00 | 96 | 1007.0 |
| 20260507105300 | 44 | 316 | 0.0 | 0.9 | 0.00 | 0.00 | 0.00 | 95 | 1006.9 |
| 20260507104757 | 44 | 317 | 0.9 | 0.9 | 0.00 | 0.00 | 0.00 | 95 | 1006.8 |
| 20260507104253 | 44 | 315 | 0.0 | 0.0 | 0.00 | 0.00 | 0.00 | 95 | 1006.8 |
| 20260507103749 | 44 | 316 | 0.9 | 0.9 | 0.00 | 0.00 | 0.00 | 95 | 1006.9 |
| 20260507103245 | 44 | 315 | 0.9 | 0.9 | 0.00 | 0.00 | 0.00 | 95 | 1007.1 |
| 20260507102742 | 44 | 309 | 0.9 | 0.9 | 0.00 | 0.00 | 0.00 | 96 | 1007.1 |
| 20260507102239 | 44 | 303 | 0.9 | 0.9 | 0.00 | 0.00 | 0.00 | 96 | 1006.8 |
| 20260507101735 | 44 | 301 | 0.9 | 0.9 | 0.00 | 0.00 | 0.00 | 96 | 1006.9 |
| 20260507101230 | 45 | 298 | 0.0 | 0.9 | 0.00 | 0.00 | 0.00 | 96 | 1007.0 |
| 20260507100728 | 45 | 295 | 0.0 | 0.0 | 0.00 | 0.00 | 0.00 | 96 | 1007.1 |
| 20260507100226 | 45 | 296 | 0.9 | 0.9 | 0.00 | 0.00 | 0.00 | 96 | 1006.8 |
| 20260507095724 | 45 | 285 | 0.0 | 0.0 | 0.00 | 0.00 | 0.00 | 96 | 1007.0 |
| 20260507095220 | 45 | 285 | 0.0 | 0.9 | 0.00 | 0.00 | 0.00 | 97 | 1006.8 |
| 20260507094717 | 45 | 285 | 0.0 | 0.9 | 0.00 | 0.00 | 0.00 | 97 | 1006.8 |
| 20260507094214 | 45 | 268 | 0.0 | 0.0 | 0.00 | 0.00 | 0.00 | 97 | 1006.9 |
| 20260507093711 | 45 | 241 | 0.9 | 0.9 | 0.00 | 0.00 | 0.00 | 98 | 1006.9 |
| 20260507093210 | 45 | 252 | 0.0 | 0.0 | 0.00 | 0.00 | 0.00 | 98 | 1006.9 |
| 20260507092707 | 45 | 252 | 0.0 | 0.0 | 0.00 | 0.00 | 0.00 | 98 | 1006.5 |
| 20260507092203 | 45 | 267 | 0.0 | 0.0 | 0.00 | 0.00 | 0.00 | 98 | 1006.3 |
| 20260507091659 | 45 | 303 | 0.0 | 0.0 | 0.00 | 0.00 | 0.00 | 98 | 1006.4 |
| 20260507091156 | 45 | 303 | 0.0 | 0.0 | 0.00 | 0.00 | 0.00 | 98 | 1006.1 |
| 20260507090651 | 46 | 303 | 0.0 | 0.9 | 0.00 | 0.00 | 0.00 | 98 | 1006.6 |
| 20260507090149 | 46 | 303 | 0.0 | 0.9 | 0.00 | 0.00 | 0.00 | 98 | 1006.3 |
| 20260507085645 | 46 | 303 | 0.0 | 0.0 | 0.00 | 0.00 | 0.00 | 98 | 1006.6 |
| 20260507085142 | 46 | 284 | 0.0 | 0.0 | 0.00 | 0.00 | 0.00 | 98 | 1006.7 |
| 20260507084639 | 46 | 260 | 0.0 | 0.9 | 0.00 | 0.00 | 0.00 | 98 | 1006.7 |
| 20260507084136 | 46 | 260 | 0.0 | 0.0 | 0.00 | 0.00 | 0.00 | 98 | 1006.4 |
| 20260507083633 | 46 | 260 | 0.0 | 0.9 | 0.00 | 0.00 | 0.00 | 98 | 1006.3 |
| 20260507083129 | 46 | 259 | 0.0 | 0.0 | 0.00 | 0.00 | 0.00 | 98 | 1006.6 |
| 20260507082625 | 46 | 258 | 0.9 | 0.9 | 0.00 | 0.00 | 0.00 | 98 | 1007.0 |
| 20260507082122 | 46 | 303 | 0.0 | 0.0 | 0.00 | 0.00 | 0.00 | 98 | 1006.8 |
| 20260507081618 | 46 | 303 | 0.0 | 0.0 | 0.00 | 0.00 | 0.00 | 98 | 1006.4 |
| 20260507081115 | 46 | 303 | 0.0 | 0.9 | 0.00 | 0.00 | 0.00 | 98 | 1006.4 |
| 20260507080611 | 46 | 303 | 0.0 | 0.9 | 0.00 | 0.00 | 0.00 | 98 | 1006.5 |
| 20260507080108 | 46 | 303 | 0.0 | 0.9 | 0.00 | 0.00 | 0.00 | 98 | 1006.4 |
| 20260507075603 | 46 | 303 | 0.0 | 0.0 | 0.00 | 0.00 | 0.00 | 98 | 1006.2 |
| 20260507075059 | 46 | 303 | 0.9 | 0.9 | 0.00 | 0.00 | 0.00 | 98 | 1005.9 |
| 20260507074556 | 46 | 303 | 0.0 | 0.9 | 0.00 | 0.00 | 0.00 | 98 | 1006.2 |
| 20260507074055 | 47 | 303 | 0.0 | 0.9 | 0.00 | 0.00 | 0.00 | 98 | 1006.0 |
| 20260507073550 | 47 | 303 | 0.0 | 0.9 | 0.00 | 0.00 | 0.00 | 98 | 1006.1 |
| 20260507073047 | 47 | 291 | 0.9 | 0.9 | 0.00 | 0.00 | 0.00 | 97 | 1006.1 |
| 20260507072545 | 47 | 286 | 0.0 | 0.9 | 0.00 | 0.00 | 0.00 | 97 | 1006.0 |
| 20260507072041 | 47 | 286 | 0.0 | 0.0 | 0.00 | 0.00 | 0.00 | 97 | 1005.9 |
| 20260507071539 | 48 | 275 | 0.9 | 0.9 | 0.00 | 0.00 | 0.00 | 97 | 1005.9 |
| 20260507071035 | 48 | 256 | 0.0 | 0.9 | 0.00 | 0.00 | 0.00 | 97 | 1005.9 |
| 20260507070533 | 48 | 251 | 0.0 | 1.7 | 0.00 | 0.00 | 0.00 | 97 | 1006.1 |
| 20260507070030 | 48 | 279 | 0.9 | 0.9 | 0.00 | 0.00 | 0.00 | 97 | 1006.1 |
| 20260507065526 | 48 | 278 | 0.0 | 0.9 | 0.00 | 0.00 | 0.00 | 97 | 1005.9 |
| 20260507065023 | 48 | 243 | 0.0 | 1.7 | 0.00 | 0.00 | 0.00 | 97 | 1006.1 |
| 20260507064521 | 49 | 231 | 1.7 | 2.6 | 0.00 | 0.00 | 0.00 | 97 | 1006.1 |
| 20260507064019 | 49 | 238 | 0.9 | 0.9 | 0.00 | 0.00 | 0.00 | 97 | 1006.0 |
| 20260507063516 | 49 | 256 | 0.0 | 5.2 | 0.00 | 0.00 | 0.00 | 98 | 1005.8 |
| 20260507063014 | 49 | 284 | 0.0 | 0.0 | 0.00 | 0.00 | 0.00 | 98 | 1005.8 |
| 20260507062510 | 50 | 284 | 0.0 | 0.9 | 0.00 | 0.00 | 0.00 | 98 | 1005.5 |
| 20260507062008 | 50 | 260 | 0.0 | 0.0 | 0.00 | 0.00 | 0.00 | 98 | 1005.5 |
| 20260507061505 | 50 | 309 | 0.0 | 0.9 | 0.00 | 0.00 | 0.00 | 98 | 1005.5 |
| 20260507061003 | 50 | 301 | 0.0 | 0.0 | 0.00 | 0.00 | 0.00 | 98 | 1005.7 |
| 20260507060500 | 50 | 301 | 0.0 | 0.9 | 0.00 | 0.00 | 0.00 | 98 | 1005.4 |
| 20260507055956 | 50 | 276 | 0.0 | 0.9 | 0.00 | 0.00 | 0.00 | 98 | 1005.6 |
| 20260507055452 | 50 | 252 | 0.0 | 0.9 | 0.00 | 0.00 | 0.00 | 98 | 1005.2 |
| 20260507054949 | 50 | 250 | 0.0 | 0.9 | 0.00 | 0.00 | 0.00 | 98 | 1005.3 |
| 20260507054445 | 51 | 234 | 0.0 | 0.9 | 0.00 | 0.00 | 0.00 | 99 | 1005.4 |
| 20260507053942 | 51 | 241 | 0.0 | 0.9 | 0.00 | 0.00 | 0.00 | 99 | 1005.2 |
| 20260507053440 | 51 | 242 | 0.0 | 0.0 | 0.00 | 0.00 | 0.00 | 99 | 1005.3 |
| 20260507052938 | 51 | 242 | 0.9 | 0.9 | 0.00 | 0.00 | 0.00 | 99 | 1005.2 |
| 20260507052435 | 51 | 242 | 0.0 | 0.0 | 0.00 | 0.00 | 0.00 | 99 | 1005.4 |
| 20260507051932 | 51 | 242 | 0.0 | 0.0 | 0.00 | 0.00 | 0.00 | 99 | 1005.3 |
| 20260507051430 | 51 | 242 | 0.0 | 0.0 | 0.00 | 0.00 | 0.00 | 99 | 1005.0 |
| 20260507050927 | 51 | 242 | 0.0 | 0.0 | 0.00 | 0.00 | 0.00 | 99 | 1005.1 |
| 20260507050423 | 51 | 242 | 0.0 | 0.0 | 0.00 | 0.00 | 0.00 | 99 | 1005.2 |
| 20260507045920 | 51 | 247 | 0.0 | 0.0 | 0.00 | 0.00 | 0.00 | 99 | 1005.1 |
| 20260507045416 | 51 | 311 | 0.9 | 0.9 | 0.00 | 0.00 | 0.00 | 99 | 1005.4 |
| 20260507044914 | 51 | 311 | 0.0 | 0.9 | 0.00 | 0.00 | 0.00 | 99 | 1005.3 |
| 20260507044410 | 51 | 311 | 0.0 | 0.9 | 0.00 | 0.00 | 0.00 | 99 | 1005.1 |
| 20260507043907 | 51 | 306 | 0.0 | 0.9 | 0.00 | 0.00 | 0.00 | 99 | 1005.1 |
| 20260507043403 | 51 | 299 | 0.0 | 0.9 | 0.00 | 0.00 | 0.00 | 99 | 1005.0 |
| 20260507042859 | 51 | 299 | 0.0 | 0.0 | 0.00 | 0.00 | 0.00 | 99 | 1004.9 |
| 20260507042356 | 51 | 299 | 0.0 | 0.9 | 0.00 | 0.00 | 0.00 | 98 | 1004.9 |
| 20260507041852 | 51 | 304 | 0.9 | 0.9 | 0.00 | 0.00 | 0.00 | 98 | 1005.2 |
| 20260507041349 | 52 | 295 | 0.0 | 0.0 | 0.00 | 0.00 | 0.00 | 98 | 1005.2 |
| 20260507040846 | 52 | 296 | 0.0 | 1.7 | 0.00 | 0.00 | 0.00 | 98 | 1005.1 |
| 20260507040342 | 52 | 287 | 0.9 | 0.9 | 0.00 | 0.00 | 0.00 | 98 | 1005.3 |
| 20260507035838 | 52 | 308 | 1.7 | 1.7 | 0.07 | 0.23 | 0.23 | 97 | 1005.3 |
| 20260507035333 | 52 | 291 | 0.0 | 0.9 | 0.07 | 0.23 | 0.23 | 97 | 1005.1 |
| 20260507034832 | 53 | 296 | 0.9 | 1.7 | 0.00 | 0.22 | 0.22 | 97 | 1005.3 |
| 20260507034328 | 53 | 251 | 0.0 | 1.7 | 0.05 | 0.22 | 0.22 | 97 | 1004.9 |
| 20260507033826 | 53 | 204 | 2.6 | 4.3 | 0.12 | 0.22 | 0.22 | 96 | 1005.1 |
| 20260507033324 | 54 | 254 | 0.9 | 0.9 | 0.12 | 0.21 | 0.21 | 96 | 1005.0 |
| 20260507032821 | 54 | 284 | 0.0 | 1.7 | 0.05 | 0.20 | 0.20 | 95 | 1005.1 |
| 20260507032317 | 55 | 251 | 1.7 | 4.3 | 0.00 | 0.19 | 0.19 | 94 | 1004.9 |
| 20260507031814 | 55 | 241 | 0.9 | 4.3 | 0.00 | 0.19 | 0.19 | 94 | 1004.9 |
| 20260507031310 | 56 | 228 | 1.7 | 4.3 | 0.00 | 0.19 | 0.19 | 94 | 1004.4 |
| 20260507030806 | 56 | 305 | 0.9 | 2.6 | 0.00 | 0.19 | 0.19 | 94 | 1004.3 |
| 20260507030305 | 56 | 249 | 0.9 | 1.7 | 0.00 | 0.19 | 0.19 | 94 | 1004.2 |
| 20260507025801 | 56 | 236 | 1.7 | 1.7 | 0.00 | 0.19 | 0.19 | 95 | 1004.2 |
| 20260507025258 | 57 | 236 | 1.7 | 2.6 | 0.00 | 0.19 | 0.19 | 94 | 1004.1 |
| 20260507024756 | 57 | 259 | 0.9 | 0.9 | 0.00 | 0.19 | 0.19 | 94 | 1004.4 |
| 20260507024253 | 58 | 246 | 0.0 | 4.3 | 0.00 | 0.19 | 0.19 | 93 | 1004.6 |
| 20260507023749 | 58 | 237 | 2.6 | 2.6 | 0.00 | 0.19 | 0.19 | 93 | 1004.3 |
| 20260507023246 | 58 | 236 | 1.7 | 1.7 | 0.00 | 0.19 | 0.19 | 93 | 1004.3 |
| 20260507022743 | 58 | 241 | 0.9 | 2.6 | 0.00 | 0.19 | 0.19 | 93 | 1004.4 |
| 20260507022239 | 59 | 246 | 0.0 | 1.7 | 0.00 | 0.19 | 0.19 | 94 | 1004.5 |
| 20260507021736 | 59 | 244 | 0.9 | 1.7 | 0.00 | 0.19 | 0.19 | 95 | 1004.2 |
| 20260507021231 | 59 | 209 | 1.7 | 2.6 | 0.00 | 0.19 | 0.19 | 95 | 1004.2 |
| 20260507020730 | 59 | 236 | 0.9 | 1.7 | 0.00 | 0.19 | 0.19 | 95 | 1004.4 |
| 20260507020226 | 59 | 240 | 0.0 | 0.9 | 0.00 | 0.19 | 0.19 | 95 | 1004.1 |
| 20260507015723 | 59 | 244 | 0.9 | 1.7 | 0.00 | 0.19 | 0.19 | 95 | 1004.3 |
| 20260507015221 | 59 | 257 | 0.9 | 0.9 | 0.00 | 0.19 | 0.19 | 95 | 1004.1 |
| 20260507014717 | 59 | 240 | 0.9 | 4.3 | 0.00 | 0.19 | 0.19 | 96 | 1004.4 |
| 20260507014214 | 59 | 200 | 0.9 | 1.7 | 0.00 | 0.19 | 0.19 | 96 | 1004.4 |
| 20260507013710 | 59 | 273 | 0.0 | 0.9 | 0.00 | 0.19 | 0.19 | 96 | 1004.2 |
| 20260507013208 | 59 | 213 | 1.7 | 1.7 | 0.00 | 0.19 | 0.19 | 95 | 1004.2 |
| 20260507012705 | 59 | 255 | 0.0 | 0.9 | 0.00 | 0.19 | 0.19 | 95 | 1004.4 |
| 20260507012200 | 59 | 247 | 0.0 | 1.7 | 0.00 | 0.19 | 0.19 | 95 | 1004.3 |
| 20260507011658 | 59 | 237 | 0.9 | 2.6 | 0.00 | 0.19 | 0.19 | 95 | 1004.4 |
| 20260507011154 | 59 | 168 | 3.5 | 5.2 | 0.00 | 0.19 | 0.19 | 95 | 1004.4 |
| 20260507010649 | 59 | 177 | 2.6 | 6.1 | 0.00 | 0.19 | 0.19 | 95 | 1004.4 |
| 20260507010145 | 59 | 169 | 3.5 | 6.1 | 0.00 | 0.19 | 0.19 | 95 | 1004.3 |
| 20260507005643 | 59 | 162 | 3.5 | 6.1 | 0.00 | 0.19 | 0.19 | 95 | 1004.4 |
| 20260507005138 | 59 | 184 | 1.7 | 6.1 | 0.00 | 0.19 | 0.19 | 94 | 1004.3 |
| 20260507004636 | 59 | 170 | 2.6 | 7.0 | 0.00 | 0.19 | 0.19 | 94 | 1004.3 |
| 20260507004133 | 59 | 200 | 3.5 | 4.3 | 0.00 | 0.19 | 0.19 | 94 | 1004.2 |
| 20260507003630 | 59 | 173 | 6.1 | 7.8 | 0.00 | 0.19 | 0.19 | 94 | 1004.4 |
| 20260507003129 | 59 | 239 | 0.0 | 7.0 | 0.00 | 0.19 | 0.19 | 95 | 1004.1 |
| 20260507002626 | 59 | 169 | 5.2 | 7.0 | 0.00 | 0.19 | 0.19 | 95 | 1004.2 |
| 20260507002122 | 59 | 251 | 0.0 | 7.8 | 0.00 | 0.19 | 0.19 | 94 | 1004.3 |
| 20260507001619 | 59 | 241 | 0.0 | 4.3 | 0.00 | 0.19 | 0.19 | 94 | 1004.1 |
| 20260507001117 | 60 | 237 | 1.7 | 4.3 | 0.00 | 0.19 | 0.19 | 94 | 1004.3 |
| 20260507000613 | 60 | 175 | 3.5 | 7.0 | 0.00 | 0.19 | 0.19 | 93 | 1004.0 |
| 20260507000114 | 60 | 207 | 4.3 | 11.3 | 0.00 | 0.19 | 0.19 | 93 | 1004.0 |
| 20260506235611 | 60 | 175 | 4.3 | 11.3 | 0.00 | 0.19 | 0.19 | 93 | 1004.1 |
| 20260506235111 | 60 | 182 | 4.3 | 8.7 | 0.00 | 0.19 | 0.19 | 93 | 1004.0 |
| 20260506234609 | 60 | 171 | 4.3 | 7.8 | 0.00 | 0.19 | 0.19 | 93 | 1004.0 |
| 20260506234106 | 60 | 230 | 6.1 | 11.3 | 0.00 | 0.19 | 0.19 | 93 | 1004.0 |
| 20260506233603 | 60 | 171 | 6.1 | 8.7 | 0.00 | 0.19 | 0.19 | 93 | 1003.9 |
| 20260506233100 | 60 | 170 | 4.3 | 11.3 | 0.00 | 0.19 | 0.19 | 93 | 1003.8 |
| 20260506232556 | 60 | 166 | 3.5 | 7.8 | 0.00 | 0.19 | 0.19 | 93 | 1003.9 |
| 20260506232056 | 60 | 198 | 4.3 | 8.7 | 0.00 | 0.19 | 0.19 | 93 | 1003.8 |
| 20260506231554 | 60 | 178 | 7.0 | 8.7 | 0.00 | 0.19 | 0.19 | 94 | 1003.9 |
| 20260506231052 | 60 | 191 | 2.6 | 7.8 | 0.00 | 0.19 | 0.19 | 94 | 1003.9 |
| 20260506230548 | 60 | 174 | 4.3 | 8.7 | 0.00 | 0.19 | 0.19 | 94 | 1004.0 |
| 20260506230046 | 60 | 209 | 3.5 | 11.3 | 0.00 | 0.19 | 0.19 | 94 | 1004.2 |
| 20260506225542 | 60 | 215 | 1.7 | 6.1 | 0.00 | 0.19 | 0.19 | 94 | 1003.8 |
| 20260506225038 | 60 | 174 | 5.2 | 7.8 | 0.00 | 0.19 | 0.19 | 94 | 1003.9 |
| 20260506224536 | 60 | 200 | 3.5 | 6.1 | 0.00 | 0.19 | 0.19 | 94 | 1004.0 |
| 20260506224032 | 60 | 183 | 5.2 | 9.6 | 0.00 | 0.19 | 0.19 | 94 | 1004.2 |
| 20260506223528 | 60 | 173 | 5.2 | 8.7 | 0.00 | 0.19 | 0.19 | 94 | 1004.2 |
| 20260506223025 | 60 | 183 | 1.7 | 7.8 | 0.00 | 0.19 | 0.19 | 95 | 1004.1 |
| 20260506222522 | 60 | 159 | 6.1 | 9.6 | 0.00 | 0.19 | 0.19 | 94 | 1004.3 |
| 20260506222018 | 60 | 168 | 3.5 | 7.0 | 0.00 | 0.19 | 0.19 | 95 | 1004.1 |
| 20260506221515 | 60 | 167 | 4.3 | 9.6 | 0.00 | 0.19 | 0.19 | 95 | 1004.4 |
| 20260506221013 | 60 | 233 | 0.9 | 2.6 | 0.00 | 0.19 | 0.19 | 97 | 1004.4 |
| 20260506220509 | 60 | 174 | 2.6 | 6.1 | 0.00 | 0.19 | 0.19 | 97 | 1004.3 |
| 20260506220005 | 60 | 216 | 1.7 | 6.1 | 0.00 | 0.19 | 0.19 | 97 | 1004.3 |
| 20260506215502 | 60 | 234 | 2.6 | 6.1 | 0.00 | 0.19 | 0.19 | 97 | 1004.5 |
| 20260506214957 | 60 | 199 | 1.7 | 5.2 | 0.00 | 0.19 | 0.19 | 97 | 1004.6 |
| 20260506214454 | 60 | 192 | 1.7 | 5.2 | 0.00 | 0.19 | 0.19 | 97 | 1004.8 |